Regional Weather Roundup
Issued by NWS

Home | Current Version | Previous Version | Text Only | Print | Product List | Glossary On
Versions: 1 2 3 4 5 6 7 8 9 10 11 12 13 14 15 16 17 18 19 20 21 22 23 24 25 26 27 28 29 30 31 32 33 34 35 36 37 38 39 40 41 42 43 44 45 46 47 48 49 50
000
ASUS46 KSTO 211415
RWRCA

NORTHERN AND CENTRAL CA REGIONAL WEATHER ROUNDUP
NATIONAL WEATHER SERVICE SACRAMENTO CA
700 AM PDT MON AUG 21 2017

NOTE: FAIR INDICATES FEW OR NO CLOUDS BELOW 12,000 FEET WITH NO
SIGNIFICANT WEATHER AND/OR OBSTRUCTIONS TO VISIBILITY.

CAZ001-003-211500-
NORTHWEST AREA

CITY           SKY/WX    TMP DP  RH WIND       PRES   REMARKS
CRESCENT CITY  CLOUDY    52  52 100 S7        29.96R FOG
UKIAH          CLEAR     57  55  93 S3        29.97R
$$

CAZ006-505>513-211500-
BAY AREA

CITY           SKY/WX    TMP DP  RH WIND       PRES   REMARKS
SANTA ROSA     CLOUDY    58  56  93 CALM      29.97R
SAN RAFAEL     N/A       61  MM  MM MISG
NAPA           MOCLDY    62  57  83 W13       29.97R
CONCORD        CLOUDY    64  58  80 W12       29.97R
OAKLAND CITY   N/A      MM  MM  MM MISG
OAKLAND        CLOUDY    63  59  87 W9        29.98R
SAN FRAN CITY  N/A       61  MM  85 MISG
SAN FRAN ARPT  CLOUDY    61  57  87 S9        29.97R
LIVERMORE      CLOUDY    62  58  86 W10       29.97R
HAYWARD        CLOUDY    64  56  75 NW6       29.97R
REDWOOD CITY   N/A       64  MM  79 MISG
MOFFETT ARPT   CLOUDY    66  59  78 VRB3      29.98R
SAN JOSE ARPT  CLOUDY    66  59  78 SE7       29.97R
$$
CAZ034-037-514>518-211500-
CENTRAL COAST

CITY           SKY/WX    TMP DP  RH WIND       PRES   REMARKS
WATSONVILLE    CLOUDY    62  58  86 SW7       30.00R
SALINAS        CLOUDY    63  58  83 N3        29.99R
MONTEREY       CLOUDY    61  58  90 CALM      30.00R
SAN LUIS OBISP CLOUDY    64  59  83 CALM      30.00R
SANTA MARIA    CLOUDY    63  60  90 W3        29.99R
$$
CAZ015-016-211500-
NORTHERN SACRAMENTO VALLEY

CITY           SKY/WX    TMP DP  RH WIND       PRES   REMARKS
REDDING        CLEAR     70  62  76 W3        29.91R
RED BLUFF      CLEAR     69  61  75 S3        29.92R
OROVILLE       CLEAR     65  58  78 S7        29.94R
$$
CAZ016>018-211500-
SOUTHERN SACRAMENTO VALLEY

CITY           SKY/WX    TMP DP  RH WIND       PRES   REMARKS
AUBURN         CLEAR     66  64  94 SE7       29.95R
BEALE AFB      CLEAR     63  57  80 S6        29.91R
LINCOLN        FAIR      63  54  72 SE9       29.91R
MARYSVILLE     CLEAR     63  58  83 SE6       29.92R
SAC INTL ARPT  PTCLDY    63  57  81 SE9       29.90R
MATHER AIRPORT CLEAR     61  57  88 SE8       29.92R
DOWNTOWN SAC   N/A       63  MM  MM MISG
SAC EXEC ARPT  CLEAR     62  58  86 S10       29.91R
VACAVILLE      CLEAR     65  57  75 CALM      29.92R
TRAVIS AFB     CLEAR     61  56  83 SW24      29.90R
$$
CAZ019>021-211500-
SAN JOAQUIN VALLEY

CITY           SKY/WX    TMP DP  RH WIND       PRES   REMARKS
STOCKTON       CLEAR     63  60  90 NW7       29.93R
MODESTO        PTCLDY    65  59  81 NW9       29.92R
MERCED         CLEAR     65  57  75 NW9       29.91R
LEMOORE        PTCLDY    70  57  63 NW7       29.92R
FRESNO         PTCLDY    69  59  70 NW8       29.92R
HANFORD        CLEAR     68  60  75 NW8       29.91S
PORTERVILLE      N/A     66  53  63 S6        29.93R
BAKERSFIELD    CLEAR     74  51  44 N3        29.92R
$$
CAZ011-012-071-211500-
NORTHERN MOUNTAINS

CITY           SKY/WX    TMP DP  RH WIND       PRES   REMARKS
YREKA          PTCLDY    55  40  56 CALM      30.07R HAZE
MOUNT SHASTA   PTCLDY    54  45  71 CALM      30.09R HAZE
ALTURAS        PTCLDY    48  39  71 CALM      30.16R
$$
CAZ011-012-071-211500-
SIERRA NEVADA MTNS

CITY           SKY/WX    TMP DP  RH WIND       PRES   REMARKS
BLUE CANYON    CLEAR     64  48  56 SE3       30.17R
TRUCKEE        PTCLDY    46  46 100 CALM      30.24R
TAHOE VLY ARPT CLEAR     45  42  89 S3        30.24R
MAMMOTH LAKES  FAIR      45  36  70 CALM      30.32R
$$



USA.gov is the U.S. government's official web portal to all federal, state and local government web resources and services.